CAPE
1831 1717 1943 1867 1706 1517 1345 1475 1471 974 506 498 348 430 560 796 657 398 434 346 310 262 274 201 381 120 116 227 417 422 373 391 499 350 20 0 0 1 15 22 17 240 344
1884 1869 1909 1854 1696 1634 1517 1464 1491 1050 741 933 883 905 922 887 773 549 316 325 345 425 444 451 421 193 225 29 103 273 133 37 33 38 83 121 43 45 23 13 201 277 233
1855 2008 1950 1905 1725 1688 1608 1473 1492 1205 995 1192 1128 1161 1082 998 897 632 617 780 745 431 443 337 403 219 185 54 140 30 73 60 48 49 52 52 119 126 80 16 127 211 124
1795 1680 1891 1828 1720 1646 1663 1501 1478 1381 1184 1141 1049 1235 1204 1030 776 457 484 527 517 480 674 461 342 247 153 31 56 11 0 34 62 68 52 39 51 41 130 185 153 105 33
1654 1665 1859 1777 1653 1581 1464 1309 1396 1372 1312 1075 935 1062 1099 1016 864 645 466 379 152 399 285 97 1 0 0 0 3 4 0 0 16 26 36 14 8 57 99 67 39 17 4
1650 1456 1814 1674 1691 1563 1368 1302 1312 1426 1303 1112 971 1122 1062 1169 960 650 402 219 38 84 236 11 0 0 0 0 0 0 0 0 0 0 14 24 0 3 11 12 14 0 6
1541 1773 1794 1704 1613 1475 1231 1139 1161 1207 1199 1074 951 1164 1188 1144 574 751 385 131 0 0 53 8 0 0 1 48 35 6 0 0 15 17 25 32 33 5 0 0 0 31 50
1441 1810 1958 1780 1677 1691 1378 1124 1044 1051 1139 1162 1091 1017 1120 1009 552 679 257 32 0 0 0 2 0 0 42 34 34 8 38 62 54 54 33 47 72 65 12 2 24 58 51
1511 1665 1774 1824 1736 1681 1550 1277 1094 997 1089 1225 983 1068 772 848 546 522 153 22 0 0 0 0 0 45 59 55 59 46 38 39 48 19 29 51 58 34 37 53 60 61 46
1551 1560 1683 1525 1620 1493 1444 1303 1103 1023 1141 1218 920 841 778 768 608 381 100 6 0 0 0 0 0 37 49 18 19 16 18 36 40 9 21 43 37 53 57 60 56 48 49
994 1425 1365 1560 1521 1506 1424 1266 1063 987 1031 1054 949 731 642 708 488 212 25 0 0 0 0 0 0 21 38 3 9 1 1 21 9 12 15 52 50 55 47 45 43 31 26
193 814 1097 1114 1619 1437 1409 1407 1165 990 955 1064 900 675 609 632 389 117 1 0 0 0 0 0 0 23 13 0 0 1 0 14 6 13 9 47 40 41 20 21 17 22 14
0 0 26 266 908 1133 1384 1331 1335 1236 999 877 927 730 566 573 291 10 0 0 0 0 0 0 1 3 0 1 0 0 0 0 15 4 5 4 45 22 26 17 9 14 7
0 0 0 0 40 354 554 975 1027 1012 1031 955 678 838 570 449 139 0 0 0 0 0 0 0 0 0 0 3 2 0 0 0 6 8 7 18 16 34 38 27 17 17 25
0 0 0 0 0 0 3 1 615 870 698 816 809 775 686 360 85 0 0 0 0 0 0 0 0 10 10 4 2 0 0 0 0 2 6 13 22 29 19 15 16 20 23
0 0 0 0 0 0 0 0 0 231 875 762 725 627 670 392 73 0 0 0 0 0 0 0 19 12 11 0 5 2 0 0 2 8 9 21 26 23 16 40 33 34 30
0 0 0 0 0 0 0 0 0 0 62 668 677 720 512 405 173 17 0 0 0 0 0 1 10 4 6 6 1 0 0 0 4 12 10 17 25 24 19 57 59 42 22
0 0 0 0 0 0 0 0 0 0 0 422 521 612 532 411 209 51 0 0 0 0 0 1 3 0 0 1 0 1 1 9 6 10 7 6 22 28 22 41 49 51 23
0 0 0 0 0 0 0 0 0 0 66 123 273 459 501 435 304 142 39 0 0 0 4 0 0 0 0 1 0 2 2 3 2 11 11 12 29 26 28 45 39 23 22
0 0 0 0 0 0 0 0 0 0 3 314 152 436 572 490 362 187 65 6 0 0 5 0 0 0 0 2 2 3 1 0 4 15 6 7 2 23 31 23 11 13 29
0 0 0 0 0 0 0 0 0 0 81 229 357 361 556 407 342 239 108 15 0 0 0 0 0 0 0 5 3 3 0 0 2 5 0 0 0 7 22 8 2 3 0
0 0 0 0 0 0 0 1 125 276 314 330 531 374 234 369 250 244 179 47 0 0 0 0 0 0 0 0 0 0 0 1 0 2 10 2 0 5 6 5 0 0 0
0 2 1 1 0 16 133 182 399 354 301 327 309 286 255 241 225 193 109 87 4 1 0 1 0 0 0 0 0 0 0 0 0 0 2 4 0 1 2 0 0 0 0
0 2 2 1 0 4 35 263 398 315 266 204 261 215 69 157 154 154 117 68 27 4 1 3 0 0 0 0 0 0 0 0 0 0 0 1 0 0 0 0 0 0 0
0 0 0 2 0 0 0 48 110 307 234 68 4 1 2 0 58 54 72 54 35 14 9 4 0 0 0 0 0 0 0 0 0 0 0 0 0 0 0 0 0 0 0
0 0 0 0 1 1 1 1 1 4 11 5 3 13 1 0 4 20 26 47 40 20 19 11 6 0 1 0 0 0 0 0 0 0 0 0 0 0 0 0 0 0 0
CIN
-111 -129 -61 -45 -42 -33 -19 -4 -1 -23 -90 -64 -96 -65 -23 -0 -0 -15 -8 -28 -42 -50 -55 -82 -49 -133 -142 -99 -57 -52 -62 -47 -35 -66 -47 -0 -0 -34 -73 -63 -69 -108 -83
-120 -106 -68 -44 -38 -24 -7 -5 -1 -24 -35 -13 -13 -4 -0 -0 -0 -0 -42 -46 -39 -26 -22 -28 -46 -102 -95 -183 -137 -79 -154 -31 -13 -30 -176 -157 -192 -223 -230 -12 -142 -109 -136
-70 -56 -46 -32 -30 -19 -6 -8 -3 -14 -13 -1 -2 -0 -0 -0 -2 -7 -4 -0 -1 -47 -43 -61 -52 -87 -111 -168 -128 -135 -178 -58 -11 -6 -204 -168 -199 -177 -210 -47 -180 -163 -219
-32 -74 -40 -30 -25 -14 -7 -11 -7 -4 -6 -3 -3 -0 -0 -0 -0 -33 -31 -26 -19 -40 -6 -39 -72 -99 -130 -217 -179 -6 -0 -13 -15 -10 -10 -8 -147 -131 -181 -163 -185 -242 -59
-36 -49 -55 -33 -22 -11 -17 -23 -17 -8 -4 -6 -6 -3 -0 -0 -0 -10 -42 -62 -133 -47 -79 -167 -8 -0 -0 -0 -2 -0 -0 -0 -31 -32 -9 -25 -34 -24 -233 -93 -0 -3 -23
-26 -50 -60 -51 -13 -11 -21 -15 -16 -2 -3 -6 -7 -2 -1 -0 -0 -1 -40 -115 -212 -164 -86 -85 -0 -0 -0 -0 -0 -0 -0 -0 -0 -0 -14 -12 -0 -35 -13 -15 -10 -0 -17
-7 -42 -53 -58 -28 -14 -30 -32 -21 -12 -6 -4 -8 -1 -0 -0 -5 -0 -42 -153 -0 -0 -188 -90 -0 -0 -0 -1 -17 -23 -0 -0 -27 -9 -10 -12 -12 -0 -0 -0 -0 -0 -0
-6 -29 -32 -37 -33 -4 -17 -34 -28 -17 -7 -4 -4 -2 -1 -1 -8 -0 -69 -231 -0 -0 -0 -54 -0 -0 -114 -3 -21 -30 -12 -7 -12 -12 -18 -13 -4 -0 -2 -0 -0 -0 -0
-4 -5 -46 -23 -13 -10 -5 -13 -24 -21 -6 -2 -4 -2 -3 -2 -5 -7 -107 -263 -0 -0 -0 -0 -0 -287 -296 -33 -31 -25 -16 -4 -11 -16 -20 -15 -2 -5 -0 -0 -0 -0 -0
-4 -4 -22 -49 -29 -20 -16 -20 -21 -20 -5 -2 -5 -6 -4 -2 -2 -19 -148 -136 -0 -0 -0 -0 -0 -303 -6 -24 -31 -20 -25 -21 -21 -34 -30 -5 -6 -0 -0 -0 -0 -0 -0
-3 -2 -2 -18 -37 -28 -15 -15 -25 -19 -7 -5 -5 -12 -8 -4 -4 -44 -254 -0 -0 -0 -0 -0 -0 -4 -8 -40 -27 -13 -5 -18 -26 -28 -32 -8 -0 -0 -0 -0 -0 -1 -7
-116 -15 -12 -4 -11 -16 -16 -27 -31 -22 -11 -4 -5 -17 -17 -5 -5 -73 -86 -0 -0 -0 -0 -1 -0 -4 -21 -7 -0 -8 -1 -12 -27 -34 -32 -14 -10 -1 -3 -4 -6 -6 -17
-0 -0 -251 -77 -8 -7 -11 -34 -37 -18 -16 -10 -2 -7 -11 -4 -7 -208 -0 -0 -0 -0 -0 -0 -0 -7 -0 -23 -0 -0 -0 -0 -39 -51 -26 -28 -8 -8 -10 -18 -14 -2 -12
-0 -0 -0 -0 -192 -40 -12 -21 -22 -29 -9 -4 -5 -2 -11 -5 -30 -0 -0 -0 -0 -0 -0 -0 -0 -0 -0 -17 -8 -0 -0 -0 -42 -48 -28 -12 -5 -3 -5 -6 -6 -4 -6
-0 -0 -0 -0 -0 -0 -141 -35 -27 -24 -37 -24 -9 -3 -7 -10 -53 -0 -0 -0 -0 -0 -0 -0 -0 -18 -9 -13 -2 -0 -0 -0 -0 -51 -43 -15 -5 -3 -9 -3 -1 -1 -2
-0 -0 -0 -0 -0 -0 -0 -0 -0 -84 -25 -41 -39 -17 -13 -20 -58 -0 -0 -0 -0 -0 -0 -0 -11 -10 -13 -1 -6 -1 -0 -0 -29 -30 -32 -19 -12 -7 -1 -4 -3 -0 -2
-0 -0 -0 -0 -0 -0 -0 -0 -0 -0 -4 -18 -21 -30 -26 -19 -32 -81 -0 -0 -0 -0 -0 -4 -9 -22 -23 -12 -3 -0 -0 -0 -29 -35 -25 -24 -16 -12 -6 -2 -0 -0 -3
-0 -0 -0 -0 -0 -0 -0 -0 -0 -0 -0 -30 -31 -10 -26 -19 -41 -50 -0 -0 -0 -0 -5 -10 -12 -0 -0 -5 -0 -8 -9 -15 -21 -31 -23 -19 -20 -15 -5 -2 -0 -6 -3
-0 -0 -0 -0 -0 -0 -0 -0 -0 -0 -70 -46 -38 -20 -16 -21 -29 -30 -42 -0 -0 -0 -15 -0 -0 -0 -0 -7 -0 -8 -16 -10 -25 -33 -40 -28 -22 -20 -19 -2 -2 -2 -1
-0 -0 -0 -0 -0 -0 -0 -0 -0 -0 -11 -28 -38 -7 -9 -7 -22 -21 -30 -69 -0 -0 -44 -0 -0 -0 -0 -6 -6 -15 -7 -0 -24 -31 -45 -42 -34 -23 -25 -15 -23 -17 -5
-0 -0 -0 -0 -0 -0 -0 -0 -0 -0 -47 -19 -17 -26 -6 -11 -8 -18 -21 -43 -0 -0 -12 -0 -0 -0 -7 -12 -18 -31 -0 -0 -39 -31 -12 -37 -0 -36 -35 -35 -43 -59 -0
-0 -0 -0 -0 -0 -0 -0 -59 -81 -38 -35 -22 -9 -15 -16 -9 -18 -17 -29 -29 -6 -0 -0 -8 -0 -0 -0 -13 -1 -2 -6 -4 -0 -19 -29 -45 -1 -61 -44 -57 -0 -0 -0
-0 -0 -0 -3 -0 -243 -94 -50 -7 -9 -19 -4 -7 -7 -4 -9 -17 -19 -21 -37 -38 -10 -0 -18 -0 -0 -0 -0 -0 -0 -0 -3 -0 -0 -15 -27 -1 -29 -47 -0 -0 -0 -0
-0 -0 -0 -0 -0 -216 -176 -46 -5 -15 -24 -30 -17 -17 -21 -8 -11 -15 -21 -32 -46 -32 -15 -42 -6 -0 -0 -0 -0 -0 -0 -0 -0 -0 -0 -18 -0 -9 -7 -0 -0 -0 -0
-0 -0 -0 -0 -0 -0 -0 -127 -52 -10 -14 -41 -78 -4 -18 -8 -11 -14 -22 -23 -30 -19 -9 -30 -3 -0 -0 -0 -0 -0 -0 -0 -0 -0 -0 -0 -0 -0 -0 -0 -0 -0 -0
-0 -0 -0 -0 -0 -0 -0 -0 -63 -83 -92 -94 -71 -84 -4 -0 -7 -12 -9 -12 -16 -15 -14 -27 -31 -51 -27 -4 -0 -0 -0 -0 -0 -0 -0 -0 -0 -0 -0 -0 -0 -0 -0
Wind_Speed
6 5 3 4 5 6 7 9 9 7 6 8 8 5 3 3 4 4 4 4 4 5 5 6 7 9 9 10 10 9 9 8 9 9 6 4 4 5 5 12 5 3 4
3 2 1 1 2 3 5 7 8 8 6 6 7 6 3 2 3 4 5 5 5 9 7 5 6 10 10 10 11 11 10 9 10 9 4 4 4 5 10 15 9 6 7
4 2 1 1 1 1 3 5 6 6 5 4 5 4 3 3 4 6 7 7 5 6 6 5 6 8 9 9 10 11 9 9 9 8 5 3 3 3 6 10 14 11 9
2 2 2 2 3 2 1 1 2 4 4 3 3 3 3 5 6 6 6 6 4 4 6 7 8 7 8 9 10 10 8 5 4 5 4 3 3 2 6 8 9 10 9
3 2 2 3 4 4 3 2 1 1 1 2 3 3 5 7 9 7 5 5 5 4 5 6 6 7 8 9 9 9 7 12 15 15 12 4 5 5 4 5 6 8 10
3 3 1 4 5 6 6 5 5 5 5 5 4 5 7 9 9 6 5 4 6 7 7 7 8 8 7 7 8 8 6 15 16 14 5 4 5 7 7 5 7 9 10
4 3 1 3 5 7 8 8 7 8 8 8 8 7 8 10 11 6 5 6 10 10 9 9 8 7 6 6 7 7 5 12 14 6 6 6 7 8 6 5 6 9 11
5 3 3 2 4 6 8 9 9 10 11 11 10 10 10 10 6 6 6 8 10 11 10 8 8 7 5 5 6 6 5 4 5 5 4 6 6 7 6 5 6 9 11
6 5 4 5 5 6 7 8 10 11 11 12 13 12 11 9 5 5 8 9 9 11 10 7 6 5 3 4 5 5 4 6 5 4 5 5 6 6 6 7 9 10 10
8 8 5 5 7 10 11 10 11 12 13 13 14 14 11 9 8 7 8 9 9 10 10 9 6 4 3 3 3 3 4 6 5 5 5 5 5 8 7 8 9 11 12
8 6 11 7 8 10 11 13 14 14 14 14 15 14 13 12 10 10 9 10 10 11 12 11 9 7 4 5 5 7 7 6 5 5 5 5 4 6 7 8 9 9 10
15 8 9 13 10 11 14 13 15 17 18 17 16 15 15 13 14 13 12 9 10 11 12 12 11 8 6 8 9 10 14 6 5 5 5 5 4 4 5 6 6 8 9
13 10 9 11 15 14 14 15 16 17 19 19 17 15 16 16 15 15 12 11 11 11 12 11 10 9 8 8 10 14 15 13 7 5 4 6 5 6 4 5 6 7 8
17 15 13 11 14 17 19 17 17 18 19 21 19 16 16 17 16 14 14 14 13 13 12 11 11 11 12 9 11 14 15 8 4 6 6 7 8 8 6 7 9 10 8
22 19 17 14 14 17 21 23 19 20 21 21 23 21 18 18 18 16 15 15 15 13 12 9 10 11 11 10 10 14 15 12 6 7 7 7 6 6 9 10 8 6 5
25 24 21 19 17 18 21 23 26 22 20 22 23 23 22 21 19 19 16 15 15 13 12 12 12 11 10 11 13 13 16 16 12 7 6 7 6 6 7 6 4 3 4
31 27 24 24 23 22 23 25 26 29 24 21 23 23 24 23 21 21 18 16 15 14 16 12 12 10 12 13 12 11 15 16 11 8 7 7 8 9 6 4 4 3 5
32 29 27 25 26 26 27 29 30 30 29 24 21 23 23 23 22 23 22 19 16 15 16 14 13 13 13 12 13 13 12 14 12 10 8 9 9 9 8 8 4 4 6
28 28 28 26 27 27 27 27 28 30 28 29 26 24 22 22 23 25 25 23 20 19 16 15 14 13 14 14 13 14 11 10 11 11 10 10 11 11 11 9 8 9 6
31 31 32 33 31 30 29 29 27 28 28 25 26 28 24 23 23 25 27 26 21 23 17 17 16 15 15 14 13 15 15 15 11 12 12 13 12 12 10 9 9 9 9
31 31 31 32 32 30 31 32 29 29 28 25 23 26 26 24 23 23 25 26 24 24 20 17 17 16 17 14 13 14 17 18 18 16 15 15 15 13 11 10 10 9 8
32 32 32 33 30 30 31 31 30 28 27 26 23 23 25 26 25 23 24 24 26 25 24 21 18 18 17 14 18 17 20 21 21 19 17 16 16 15 13 12 11 10 10
31 31 30 30 29 27 28 27 26 26 25 26 27 26 24 24 26 26 25 23 23 25 26 23 22 20 19 17 15 19 23 25 22 23 21 19 18 18 17 15 14 14 13
29 29 26 26 27 28 25 25 26 28 28 27 26 24 24 24 24 25 24 24 24 24 26 25 23 23 21 19 19 21 21 19 24 26 25 23 20 21 20 20 19 17 17
24 24 23 22 20 23 25 25 24 24 26 24 24 24 24 23 23 22 23 24 24 24 25 25 24 23 23 22 23 24 25 24 20 23 26 25 25 23 22 23 22 22 21
19 19 19 18 17 18 19 20 24 24 20 21 22 22 22 23 24 23 23 23 24 24 25 25 25 25 25 26 26 25 26 26 25 25 27 24 26 25 23 24 25 25 24
Wind_Direction
342 47 72 69 65 67 70 85 83 75 64 62 56 30 345 15 357 328 322 344 333 301 316 12 31 33 23 19 10 357 357 358 10 21 6 334 347 13 235 200 349 284 6
4 319 45 38 50 56 67 85 83 79 71 61 56 43 350 331 328 311 303 316 313 270 295 345 23 56 41 32 20 9 3 19 27 28 354 304 292 255 217 195 41 23 29
2 3 277 271 327 38 76 81 77 79 74 55 45 32 357 326 301 292 290 292 302 313 2 13 45 47 43 17 6 8 5 24 39 39 24 346 316 298 29 47 59 46 36
359 32 264 254 266 270 316 78 67 73 70 57 40 23 314 291 286 292 291 285 302 344 13 30 41 30 10 354 356 2 354 316 293 267 323 350 296 319 33 41 39 39 29
348 311 270 240 251 258 261 275 280 319 21 28 336 323 286 278 275 285 280 283 283 322 351 356 350 343 342 338 353 353 315 245 230 231 239 327 287 276 320 1 10 25 22
15 339 172 226 248 257 264 269 275 277 284 292 301 295 284 277 273 272 271 268 279 291 307 331 336 336 340 347 6 1 293 233 231 243 312 331 302 276 287 340 12 28 26
345 357 78 200 238 251 261 266 267 270 275 277 281 285 283 279 272 260 261 275 278 281 293 300 315 329 335 351 21 9 292 241 239 277 293 304 301 292 309 337 17 35 43
326 342 323 237 223 245 254 263 268 269 267 269 274 279 281 281 275 251 262 282 285 278 287 299 304 303 330 40 30 23 352 291 289 300 324 327 312 309 359 13 44 51 53
325 329 319 283 257 248 255 260 266 267 267 268 268 272 275 277 265 262 271 283 288 281 279 295 306 299 357 34 42 35 358 316 327 334 343 347 333 348 28 50 62 60 52
319 306 304 292 268 269 268 264 263 265 265 267 268 268 267 266 262 266 277 282 287 282 279 284 286 283 300 320 12 6 336 328 349 332 340 348 355 13 42 56 59 60 53
316 302 297 275 270 266 266 265 264 265 264 264 265 266 262 261 259 265 272 279 283 281 275 275 270 265 276 287 298 289 289 311 344 331 323 4 3 3 30 45 52 48 42
297 304 291 287 270 265 268 263 264 264 264 262 262 261 259 257 257 262 268 275 282 280 277 268 263 265 265 276 280 286 267 289 312 323 309 319 337 356 3 22 17 25 30
290 289 283 283 279 277 265 266 265 265 262 261 258 255 255 256 255 260 260 271 277 278 274 264 258 258 264 273 277 276 264 275 292 310 306 288 312 314 332 350 353 351 358
283 279 280 271 279 275 275 264 264 261 262 259 256 250 249 251 250 253 256 265 269 273 269 262 256 255 265 272 273 270 271 282 300 300 301 292 290 297 293 310 314 317 331
278 274 273 270 268 271 270 270 267 262 260 258 257 251 246 247 246 249 256 261 263 265 262 252 255 258 264 270 271 266 275 279 291 300 302 299 293 294 295 300 312 330 339
277 274 268 265 264 267 269 267 267 268 262 257 255 251 248 244 244 248 251 256 258 257 252 253 259 260 261 266 272 270 271 274 295 296 306 296 291 299 305 302 328 345 350
278 275 268 264 262 261 260 263 263 264 266 257 258 251 248 245 242 243 247 251 254 252 252 250 260 258 263 268 269 272 268 271 297 292 300 291 289 291 295 303 317 329 335
277 272 270 267 264 262 261 261 260 260 259 258 255 259 249 242 241 244 246 249 253 251 253 243 252 260 260 260 264 274 268 271 280 288 295 290 288 288 291 289 292 303 309
286 279 277 272 265 261 259 259 258 256 255 253 254 255 252 243 243 246 247 248 251 252 250 246 247 254 257 260 264 267 276 269 282 285 292 293 285 284 283 285 286 296 288
289 284 279 275 269 264 261 258 256 253 254 251 251 251 249 248 245 246 247 248 246 252 248 248 248 253 256 255 263 266 276 281 283 281 286 287 284 284 283 281 286 289 290
291 286 280 276 269 263 258 254 251 248 248 252 250 250 247 246 245 244 246 247 247 248 247 246 249 252 253 251 259 270 276 280 285 283 285 283 281 281 279 276 278 278 277
291 287 281 275 273 263 257 254 251 247 248 248 252 249 248 248 244 244 246 247 247 246 249 247 244 249 257 246 256 265 270 275 278 285 283 281 277 276 274 272 269 270 271
293 288 283 275 269 266 259 251 247 246 248 248 248 249 249 250 248 247 246 247 247 248 245 244 248 245 248 247 244 266 271 273 275 278 280 280 276 275 272 269 267 268 268
290 286 283 275 268 262 259 252 245 245 245 247 248 249 252 251 250 248 247 247 248 249 250 246 245 247 252 249 252 263 274 278 273 277 276 277 276 273 270 268 267 266 267
295 286 284 279 277 269 259 254 251 250 246 247 249 249 250 253 253 250 251 249 249 250 251 250 248 250 250 252 254 260 267 272 272 282 277 271 276 272 269 266 267 265 267
307 304 291 289 285 275 265 257 251 250 247 244 248 249 251 254 253 254 253 252 251 252 252 253 253 249 251 258 259 264 262 264 268 272 281 276 274 273 268 266 265 265 266